Multibeam Report for RR1211


Ship Name: Roger Revelle
Chief Scientist: Resing, Joseph
University of Washington
Source Organization: UNOLS R2R
Start Date: 2012-09-09
End Date: 2012-09-26


View ISO Metadata

Visit the full NCEI Bathymetry Viewer


Multibeam Bathymetry

Cruise Details

Project: NOAA VENTS: Western Pacific Exploration and Systematic Studies
Instrument: Kongsberg EM122

Data Quality

Number of Files: 495
Number of Records: 101687
BATHYMETRY DATA Quantity Percentage
Number of Beams 43928784 100%
Number of Good Beams 39239380 89.32%
Number of Zero Beams 1330 0.0%
Number of Flagged Beams 4688074 10.67%

Navigation Totals

Total Time: 231.0825 hours
Total Track Length: 4365.4787 km
Average Speed: 18.891 km/hr (10.2003 knots)

Cruise Bounds

Northern Extent: -13.8902
Southern Extent: -22.288586
Western Extent: 178.45018
Eastern Extent: -172.06203

Limits

Minimum Sonar Depth 2.6335 Maximum Sonar Depth 8.7316
Minimum Altitude 0 Maximum Altitude 9892.6689
Minimum Depth 251.7584 Maximum Depth 10785.0879

File Information

Full Resolution Bathymetry as collected (raw): 325

Files File Size Description
0000_20120909_050657_revelle.all.mb58.gz 17.55MB Kongsberg multibeam vendor format
0001_20120909_053701_revelle.all.mb58.gz 14.31MB Kongsberg multibeam vendor format
0002_20120909_060700_revelle.all.mb58.gz 13.75MB Kongsberg multibeam vendor format
0003_20120909_063700_revelle.all.mb58.gz 13.46MB Kongsberg multibeam vendor format
0004_20120909_070658_revelle.all.mb58.gz 13.07MB Kongsberg multibeam vendor format
0005_20120909_073702_revelle.all.mb58.gz 12.53MB Kongsberg multibeam vendor format
0006_20120909_080702_revelle.all.mb58.gz 12.28MB Kongsberg multibeam vendor format
0007_20120909_083658_revelle.all.mb58.gz 10.94MB Kongsberg multibeam vendor format
0008_20120909_090700_revelle.all.mb58.gz 11.13MB Kongsberg multibeam vendor format
0009_20120909_093702_revelle.all.mb58.gz 14.21MB Kongsberg multibeam vendor format
0010_20120909_100656_revelle.all.mb58.gz 8.87MB Kongsberg multibeam vendor format
0011_20120909_103706_revelle.all.mb58.gz 7.75MB Kongsberg multibeam vendor format
0012_20120909_110708_revelle.all.mb58.gz 8.16MB Kongsberg multibeam vendor format
0013_20120909_113702_revelle.all.mb58.gz 8.04MB Kongsberg multibeam vendor format
0014_20120909_120711_revelle.all.mb58.gz 11.99MB Kongsberg multibeam vendor format
0015_20120909_123703_revelle.all.mb58.gz 9.80MB Kongsberg multibeam vendor format
0016_20120909_130659_revelle.all.mb58.gz 5.52MB Kongsberg multibeam vendor format
0017_20120909_133714_revelle.all.mb58.gz 5.61MB Kongsberg multibeam vendor format
0018_20120909_140700_revelle.all.mb58.gz 5.47MB Kongsberg multibeam vendor format
0019_20120909_143700_revelle.all.mb58.gz 5.40MB Kongsberg multibeam vendor format
0020_20120909_150708_revelle.all.mb58.gz 9.51MB Kongsberg multibeam vendor format
0021_20120909_153657_revelle.all.mb58.gz 5.36MB Kongsberg multibeam vendor format
0022_20120909_160709_revelle.all.mb58.gz 5.23MB Kongsberg multibeam vendor format
0023_20120909_163706_revelle.all.mb58.gz 5.21MB Kongsberg multibeam vendor format
0024_20120909_170712_revelle.all.mb58.gz 5.36MB Kongsberg multibeam vendor format
0025_20120909_173710_revelle.all.mb58.gz 6.29MB Kongsberg multibeam vendor format
0026_20120909_175345_revelle.all.mb58.gz 5.37MB Kongsberg multibeam vendor format
0027_20120909_182351_revelle.all.mb58.gz 1.52MB Kongsberg multibeam vendor format
0029_20120909_185014_revelle.all.mb58.gz 8.58MB Kongsberg multibeam vendor format
0030_20120909_192017_revelle.all.mb58.gz 8.90MB Kongsberg multibeam vendor format
0031_20120909_195018_revelle.all.mb58.gz 8.73MB Kongsberg multibeam vendor format
0032_20120909_202018_revelle.all.mb58.gz 8.81MB Kongsberg multibeam vendor format
0033_20120909_205014_revelle.all.mb58.gz 9.07MB Kongsberg multibeam vendor format
0034_20120909_212011_revelle.all.mb58.gz 9.52MB Kongsberg multibeam vendor format
0035_20120909_215017_revelle.all.mb58.gz 9.52MB Kongsberg multibeam vendor format
0036_20120909_222012_revelle.all.mb58.gz 10.75MB Kongsberg multibeam vendor format
0037_20120909_225011_revelle.all.mb58.gz 13.53MB Kongsberg multibeam vendor format
0038_20120909_232013_revelle.all.mb58.gz 14.34MB Kongsberg multibeam vendor format
0039_20120909_235013_revelle.all.mb58.gz 18.64MB Kongsberg multibeam vendor format
0040_20120910_002012_revelle.all.mb58.gz 16.38MB Kongsberg multibeam vendor format
0041_20120910_005013_revelle.all.mb58.gz 14.90MB Kongsberg multibeam vendor format
0042_20120910_012014_revelle.all.mb58.gz 12.17MB Kongsberg multibeam vendor format
0043_20120910_015016_revelle.all.mb58.gz 10.23MB Kongsberg multibeam vendor format
0044_20120910_022015_revelle.all.mb58.gz 8.88MB Kongsberg multibeam vendor format
0045_20120910_025014_revelle.all.mb58.gz 8.82MB Kongsberg multibeam vendor format
0046_20120910_032015_revelle.all.mb58.gz 8.76MB Kongsberg multibeam vendor format
0047_20120910_035012_revelle.all.mb58.gz 4.76MB Kongsberg multibeam vendor format
0048_20120910_054028_revelle.all.mb58.gz 8.17MB Kongsberg multibeam vendor format
0049_20120910_061029_revelle.all.mb58.gz 8.09MB Kongsberg multibeam vendor format
0050_20120910_064029_revelle.all.mb58.gz 6.84MB Kongsberg multibeam vendor format
0051_20120910_071029_revelle.all.mb58.gz 5.77MB Kongsberg multibeam vendor format
0052_20120910_074032_revelle.all.mb58.gz 6.77MB Kongsberg multibeam vendor format
0053_20120910_081035_revelle.all.mb58.gz 5.65MB Kongsberg multibeam vendor format
0054_20120910_084033_revelle.all.mb58.gz 5.26MB Kongsberg multibeam vendor format
0055_20120910_091036_revelle.all.mb58.gz 5.39MB Kongsberg multibeam vendor format
0056_20120910_094029_revelle.all.mb58.gz 6.33MB Kongsberg multibeam vendor format
0057_20120910_101029_revelle.all.mb58.gz 8.51MB Kongsberg multibeam vendor format
0058_20120910_104034_revelle.all.mb58.gz 8.87MB Kongsberg multibeam vendor format
0059_20120910_111033_revelle.all.mb58.gz 9.68MB Kongsberg multibeam vendor format
0060_20120910_114035_revelle.all.mb58.gz 6.93MB Kongsberg multibeam vendor format
0061_20120910_121031_revelle.all.mb58.gz 5.18MB Kongsberg multibeam vendor format
0062_20120910_124034_revelle.all.mb58.gz 7.82MB Kongsberg multibeam vendor format
0063_20120910_131029_revelle.all.mb58.gz 7.14MB Kongsberg multibeam vendor format
0064_20120910_134033_revelle.all.mb58.gz 6.87MB Kongsberg multibeam vendor format
0065_20120910_141034_revelle.all.mb58.gz 8.21MB Kongsberg multibeam vendor format
0066_20120910_144031_revelle.all.mb58.gz 8.41MB Kongsberg multibeam vendor format
0067_20120910_151029_revelle.all.mb58.gz 8.59MB Kongsberg multibeam vendor format
0068_20120910_154033_revelle.all.mb58.gz 9.36MB Kongsberg multibeam vendor format
0069_20120910_161030_revelle.all.mb58.gz 8.25MB Kongsberg multibeam vendor format
0070_20120910_164029_revelle.all.mb58.gz 8.28MB Kongsberg multibeam vendor format
0071_20120910_171037_revelle.all.mb58.gz 7.02MB Kongsberg multibeam vendor format
0072_20120910_174035_revelle.all.mb58.gz 8.82MB Kongsberg multibeam vendor format
0073_20120910_181031_revelle.all.mb58.gz 4.62MB Kongsberg multibeam vendor format
0074_20120911_074138_revelle.all.mb58.gz 8.56MB Kongsberg multibeam vendor format
0075_20120911_081120_revelle.all.mb58.gz 8.15MB Kongsberg multibeam vendor format
0076_20120911_084119_revelle.all.mb58.gz 8.05MB Kongsberg multibeam vendor format
0077_20120911_091123_revelle.all.mb58.gz 8.32MB Kongsberg multibeam vendor format
0078_20120911_094123_revelle.all.mb58.gz 8.38MB Kongsberg multibeam vendor format
0079_20120911_101128_revelle.all.mb58.gz 8.04MB Kongsberg multibeam vendor format
0080_20120911_104122_revelle.all.mb58.gz 8.27MB Kongsberg multibeam vendor format
0081_20120911_111122_revelle.all.mb58.gz 8.19MB Kongsberg multibeam vendor format
0082_20120911_114123_revelle.all.mb58.gz 8.11MB Kongsberg multibeam vendor format
0083_20120911_121124_revelle.all.mb58.gz 8.11MB Kongsberg multibeam vendor format
0084_20120911_124126_revelle.all.mb58.gz 8.06MB Kongsberg multibeam vendor format
0085_20120911_131121_revelle.all.mb58.gz 8.00MB Kongsberg multibeam vendor format
0086_20120911_134120_revelle.all.mb58.gz 8.41MB Kongsberg multibeam vendor format
0087_20120911_141126_revelle.all.mb58.gz 8.10MB Kongsberg multibeam vendor format
0088_20120911_144119_revelle.all.mb58.gz 8.08MB Kongsberg multibeam vendor format
0089_20120911_151124_revelle.all.mb58.gz 8.14MB Kongsberg multibeam vendor format
0090_20120911_154128_revelle.all.mb58.gz 8.27MB Kongsberg multibeam vendor format
0091_20120911_161125_revelle.all.mb58.gz 8.03MB Kongsberg multibeam vendor format
0092_20120911_164125_revelle.all.mb58.gz 8.06MB Kongsberg multibeam vendor format
0093_20120911_171121_revelle.all.mb58.gz 8.23MB Kongsberg multibeam vendor format
0094_20120911_174121_revelle.all.mb58.gz 8.24MB Kongsberg multibeam vendor format
0095_20120911_181120_revelle.all.mb58.gz 8.28MB Kongsberg multibeam vendor format
0096_20120911_184125_revelle.all.mb58.gz 8.24MB Kongsberg multibeam vendor format
0097_20120911_191122_revelle.all.mb58.gz 8.29MB Kongsberg multibeam vendor format
0098_20120911_194127_revelle.all.mb58.gz 8.23MB Kongsberg multibeam vendor format
0099_20120911_201125_revelle.all.mb58.gz 8.30MB Kongsberg multibeam vendor format
0100_20120911_204120_revelle.all.mb58.gz 8.40MB Kongsberg multibeam vendor format
0101_20120911_211125_revelle.all.mb58.gz 8.42MB Kongsberg multibeam vendor format
0102_20120911_214120_revelle.all.mb58.gz 8.54MB Kongsberg multibeam vendor format
0103_20120911_221125_revelle.all.mb58.gz 8.49MB Kongsberg multibeam vendor format
0104_20120911_224122_revelle.all.mb58.gz 8.47MB Kongsberg multibeam vendor format
0105_20120911_231126_revelle.all.mb58.gz 8.42MB Kongsberg multibeam vendor format
0106_20120911_234121_revelle.all.mb58.gz 8.54MB Kongsberg multibeam vendor format
0107_20120912_001125_revelle.all.mb58.gz 9.37MB Kongsberg multibeam vendor format
0108_20120912_004119_revelle.all.mb58.gz 10.18MB Kongsberg multibeam vendor format
0109_20120912_011122_revelle.all.mb58.gz 9.63MB Kongsberg multibeam vendor format
0110_20120912_014123_revelle.all.mb58.gz 5.92MB Kongsberg multibeam vendor format
0111_20120912_034933_revelle.all.mb58.gz 10.42MB Kongsberg multibeam vendor format
0112_20120912_041938_revelle.all.mb58.gz 9.32MB Kongsberg multibeam vendor format
0113_20120912_044934_revelle.all.mb58.gz 9.58MB Kongsberg multibeam vendor format
0114_20120912_051933_revelle.all.mb58.gz 9.34MB Kongsberg multibeam vendor format
0115_20120912_054935_revelle.all.mb58.gz 9.47MB Kongsberg multibeam vendor format
0116_20120912_061938_revelle.all.mb58.gz 9.22MB Kongsberg multibeam vendor format
0117_20120912_064932_revelle.all.mb58.gz 8.85MB Kongsberg multibeam vendor format
0118_20120912_071934_revelle.all.mb58.gz 8.87MB Kongsberg multibeam vendor format
0119_20120912_074938_revelle.all.mb58.gz 9.19MB Kongsberg multibeam vendor format
0120_20120912_081934_revelle.all.mb58.gz 10.18MB Kongsberg multibeam vendor format
0121_20120912_084932_revelle.all.mb58.gz 10.00MB Kongsberg multibeam vendor format
0122_20120912_091935_revelle.all.mb58.gz 9.98MB Kongsberg multibeam vendor format
0123_20120912_094934_revelle.all.mb58.gz 9.73MB Kongsberg multibeam vendor format
0124_20120912_101932_revelle.all.mb58.gz 10.74MB Kongsberg multibeam vendor format
0125_20120912_104934_revelle.all.mb58.gz 9.02MB Kongsberg multibeam vendor format
0126_20120912_111939_revelle.all.mb58.gz 9.17MB Kongsberg multibeam vendor format
0127_20120912_114937_revelle.all.mb58.gz 10.02MB Kongsberg multibeam vendor format
0128_20120912_121932_revelle.all.mb58.gz 10.71MB Kongsberg multibeam vendor format
0129_20120912_124935_revelle.all.mb58.gz 9.77MB Kongsberg multibeam vendor format
0130_20120912_131933_revelle.all.mb58.gz 10.15MB Kongsberg multibeam vendor format
0131_20120912_134935_revelle.all.mb58.gz 11.38MB Kongsberg multibeam vendor format
0132_20120912_141936_revelle.all.mb58.gz 8.62MB Kongsberg multibeam vendor format
0133_20120912_144937_revelle.all.mb58.gz 9.57MB Kongsberg multibeam vendor format
0134_20120912_151936_revelle.all.mb58.gz 6.18MB Kongsberg multibeam vendor format
0135_20120912_154943_revelle.all.mb58.gz 5.60MB Kongsberg multibeam vendor format
0136_20120912_161934_revelle.all.mb58.gz 5.41MB Kongsberg multibeam vendor format
0137_20120912_164935_revelle.all.mb58.gz 9.03MB Kongsberg multibeam vendor format
0138_20120912_171933_revelle.all.mb58.gz 8.21MB Kongsberg multibeam vendor format
0139_20120912_174936_revelle.all.mb58.gz 3.80MB Kongsberg multibeam vendor format
0141_20120913_083944_revelle.all.mb58.gz 8.00MB Kongsberg multibeam vendor format
0142_20120913_090942_revelle.all.mb58.gz 5.20MB Kongsberg multibeam vendor format
0143_20120913_093945_revelle.all.mb58.gz 5.97MB Kongsberg multibeam vendor format
0144_20120913_100942_revelle.all.mb58.gz 9.04MB Kongsberg multibeam vendor format
0145_20120913_103941_revelle.all.mb58.gz 8.73MB Kongsberg multibeam vendor format
0146_20120913_110944_revelle.all.mb58.gz 8.57MB Kongsberg multibeam vendor format
0147_20120913_113946_revelle.all.mb58.gz 8.36MB Kongsberg multibeam vendor format
0148_20120913_120941_revelle.all.mb58.gz 8.37MB Kongsberg multibeam vendor format
0149_20120913_123944_revelle.all.mb58.gz 8.29MB Kongsberg multibeam vendor format
0150_20120913_130939_revelle.all.mb58.gz 8.47MB Kongsberg multibeam vendor format
0151_20120913_133939_revelle.all.mb58.gz 8.52MB Kongsberg multibeam vendor format
0152_20120913_140946_revelle.all.mb58.gz 8.59MB Kongsberg multibeam vendor format
0153_20120913_143943_revelle.all.mb58.gz 8.63MB Kongsberg multibeam vendor format
0154_20120913_150944_revelle.all.mb58.gz 8.79MB Kongsberg multibeam vendor format
0155_20120913_153939_revelle.all.mb58.gz 8.92MB Kongsberg multibeam vendor format
0156_20120913_160938_revelle.all.mb58.gz 8.95MB Kongsberg multibeam vendor format
0157_20120913_163940_revelle.all.mb58.gz 9.01MB Kongsberg multibeam vendor format
0158_20120913_170945_revelle.all.mb58.gz 9.09MB Kongsberg multibeam vendor format
0159_20120913_173944_revelle.all.mb58.gz 8.81MB Kongsberg multibeam vendor format
0160_20120913_180948_revelle.all.mb58.gz 7.94MB Kongsberg multibeam vendor format
0161_20120913_183946_revelle.all.mb58.gz 8.02MB Kongsberg multibeam vendor format
0162_20120913_190939_revelle.all.mb58.gz 5.38MB Kongsberg multibeam vendor format
0163_20120914_092318_revelle.all.mb58.gz 8.60MB Kongsberg multibeam vendor format
0164_20120914_095320_revelle.all.mb58.gz 7.92MB Kongsberg multibeam vendor format
0165_20120914_102320_revelle.all.mb58.gz 9.16MB Kongsberg multibeam vendor format
0166_20120914_105318_revelle.all.mb58.gz 8.53MB Kongsberg multibeam vendor format
0167_20120914_112321_revelle.all.mb58.gz 9.07MB Kongsberg multibeam vendor format
0168_20120914_115321_revelle.all.mb58.gz 8.25MB Kongsberg multibeam vendor format
0169_20120914_122319_revelle.all.mb58.gz 8.82MB Kongsberg multibeam vendor format
0170_20120914_125320_revelle.all.mb58.gz 8.82MB Kongsberg multibeam vendor format
0171_20120914_132322_revelle.all.mb58.gz 9.01MB Kongsberg multibeam vendor format
0172_20120914_135323_revelle.all.mb58.gz 7.80MB Kongsberg multibeam vendor format
0173_20120914_142317_revelle.all.mb58.gz 8.22MB Kongsberg multibeam vendor format
0174_20120914_145321_revelle.all.mb58.gz 9.21MB Kongsberg multibeam vendor format
0175_20120914_152325_revelle.all.mb58.gz 8.35MB Kongsberg multibeam vendor format
0176_20120914_155321_revelle.all.mb58.gz 8.19MB Kongsberg multibeam vendor format
0177_20120914_162318_revelle.all.mb58.gz 5.85MB Kongsberg multibeam vendor format
0178_20120914_165316_revelle.all.mb58.gz 5.26MB Kongsberg multibeam vendor format
0179_20120914_172326_revelle.all.mb58.gz 6.83MB Kongsberg multibeam vendor format
0180_20120914_175323_revelle.all.mb58.gz 6.31MB Kongsberg multibeam vendor format
0181_20120914_182321_revelle.all.mb58.gz 158.7KB Kongsberg multibeam vendor format
0182_20120915_073134_revelle.all.mb58.gz 3.42MB Kongsberg multibeam vendor format
0183_20120915_125916_revelle.all.mb58.gz 7.82MB Kongsberg multibeam vendor format
0184_20120915_132917_revelle.all.mb58.gz 6.31MB Kongsberg multibeam vendor format
0185_20120915_184809_revelle.all.mb58.gz 6.58MB Kongsberg multibeam vendor format
0186_20120915_191806_revelle.all.mb58.gz 5.53MB Kongsberg multibeam vendor format
0187_20120915_194806_revelle.all.mb58.gz 5.18MB Kongsberg multibeam vendor format
0188_20120915_201810_revelle.all.mb58.gz 5.37MB Kongsberg multibeam vendor format
0189_20120915_204820_revelle.all.mb58.gz 4.78MB Kongsberg multibeam vendor format
0190_20120915_211809_revelle.all.mb58.gz 6.76MB Kongsberg multibeam vendor format
0191_20120915_214411_revelle.all.mb58.gz 5.68MB Kongsberg multibeam vendor format
0192_20120915_221416_revelle.all.mb58.gz 5.81MB Kongsberg multibeam vendor format
0193_20120915_224412_revelle.all.mb58.gz 7.89MB Kongsberg multibeam vendor format
0194_20120915_231418_revelle.all.mb58.gz 5.90MB Kongsberg multibeam vendor format
0195_20120915_234412_revelle.all.mb58.gz 6.03MB Kongsberg multibeam vendor format
0196_20120916_001415_revelle.all.mb58.gz 7.61MB Kongsberg multibeam vendor format
0197_20120916_004420_revelle.all.mb58.gz 6.19MB Kongsberg multibeam vendor format
0198_20120916_011415_revelle.all.mb58.gz 7.21MB Kongsberg multibeam vendor format
0199_20120916_014412_revelle.all.mb58.gz 9.93MB Kongsberg multibeam vendor format
0200_20120916_021412_revelle.all.mb58.gz 9.41MB Kongsberg multibeam vendor format
0201_20120916_024414_revelle.all.mb58.gz 8.98MB Kongsberg multibeam vendor format
0202_20120916_031412_revelle.all.mb58.gz 9.07MB Kongsberg multibeam vendor format
0203_20120916_034411_revelle.all.mb58.gz 9.27MB Kongsberg multibeam vendor format
0204_20120916_041416_revelle.all.mb58.gz 5.01MB Kongsberg multibeam vendor format
0205_20120916_043343_revelle.all.mb58.gz 4.48MB Kongsberg multibeam vendor format
0206_20120916_045109_revelle.all.mb58.gz 1.26MB Kongsberg multibeam vendor format
0207_20120916_045822_revelle.all.mb58.gz 0.55MB Kongsberg multibeam vendor format
0208_20120916_050357_revelle.all.mb58.gz 8.72MB Kongsberg multibeam vendor format
0209_20120916_053357_revelle.all.mb58.gz 8.54MB Kongsberg multibeam vendor format
0210_20120916_072601_revelle.all.mb58.gz 9.73MB Kongsberg multibeam vendor format
0211_20120916_075602_revelle.all.mb58.gz 9.16MB Kongsberg multibeam vendor format
0212_20120916_082558_revelle.all.mb58.gz 9.09MB Kongsberg multibeam vendor format
0213_20120916_085558_revelle.all.mb58.gz 2.54MB Kongsberg multibeam vendor format
0214_20120916_114156_revelle.all.mb58.gz 8.93MB Kongsberg multibeam vendor format
0215_20120916_121156_revelle.all.mb58.gz 8.72MB Kongsberg multibeam vendor format
0216_20120916_124200_revelle.all.mb58.gz 8.90MB Kongsberg multibeam vendor format
0217_20120916_131200_revelle.all.mb58.gz 9.30MB Kongsberg multibeam vendor format
0218_20120916_134156_revelle.all.mb58.gz 8.45MB Kongsberg multibeam vendor format
0219_20120916_141159_revelle.all.mb58.gz 6.02MB Kongsberg multibeam vendor format
0220_20120916_144205_revelle.all.mb58.gz 6.02MB Kongsberg multibeam vendor format
0221_20120916_151205_revelle.all.mb58.gz 5.88MB Kongsberg multibeam vendor format
0222_20120916_154202_revelle.all.mb58.gz 7.69MB Kongsberg multibeam vendor format
0223_20120916_161202_revelle.all.mb58.gz 9.63MB Kongsberg multibeam vendor format
0224_20120916_164202_revelle.all.mb58.gz 8.54MB Kongsberg multibeam vendor format
0225_20120916_171156_revelle.all.mb58.gz 8.61MB Kongsberg multibeam vendor format
0226_20120916_174157_revelle.all.mb58.gz 6.24MB Kongsberg multibeam vendor format
0227_20120916_181205_revelle.all.mb58.gz 5.55MB Kongsberg multibeam vendor format
0228_20120916_184207_revelle.all.mb58.gz 3.76MB Kongsberg multibeam vendor format
0229_20120917_131305_revelle.all.mb58.gz 5.96MB Kongsberg multibeam vendor format
0230_20120917_134303_revelle.all.mb58.gz 7.84MB Kongsberg multibeam vendor format
0231_20120917_141304_revelle.all.mb58.gz 6.99MB Kongsberg multibeam vendor format
0232_20120917_144302_revelle.all.mb58.gz 7.66MB Kongsberg multibeam vendor format
0233_20120917_151300_revelle.all.mb58.gz 6.42MB Kongsberg multibeam vendor format
0234_20120917_154303_revelle.all.mb58.gz 7.48MB Kongsberg multibeam vendor format
0235_20120917_161304_revelle.all.mb58.gz 9.62MB Kongsberg multibeam vendor format
0236_20120917_164308_revelle.all.mb58.gz 1.79MB Kongsberg multibeam vendor format
0237_20120917_165644_revelle.all.mb58.gz 5.03MB Kongsberg multibeam vendor format
0238_20120917_172647_revelle.all.mb58.gz 7.10MB Kongsberg multibeam vendor format
0239_20120917_175646_revelle.all.mb58.gz 9.51MB Kongsberg multibeam vendor format
0240_20120917_182649_revelle.all.mb58.gz 4.95MB Kongsberg multibeam vendor format
0241_20120917_185646_revelle.all.mb58.gz 7.60MB Kongsberg multibeam vendor format
0242_20120917_192643_revelle.all.mb58.gz 7.30MB Kongsberg multibeam vendor format
0243_20120917_195652_revelle.all.mb58.gz 5.53MB Kongsberg multibeam vendor format
0244_20120917_202644_revelle.all.mb58.gz 2.52MB Kongsberg multibeam vendor format
0245_20120917_205328_revelle.all.mb58.gz 7.37MB Kongsberg multibeam vendor format
0246_20120917_212329_revelle.all.mb58.gz 11.07MB Kongsberg multibeam vendor format
0247_20120917_215329_revelle.all.mb58.gz 9.41MB Kongsberg multibeam vendor format
0248_20120920_154956_revelle.all.mb58.gz 8.05MB Kongsberg multibeam vendor format
0249_20120920_161958_revelle.all.mb58.gz 8.59MB Kongsberg multibeam vendor format
0250_20120920_164953_revelle.all.mb58.gz 7.03MB Kongsberg multibeam vendor format
0251_20120920_172000_revelle.all.mb58.gz 4.53MB Kongsberg multibeam vendor format
0252_20120920_174957_revelle.all.mb58.gz 5.02MB Kongsberg multibeam vendor format
0253_20120920_181954_revelle.all.mb58.gz 4.99MB Kongsberg multibeam vendor format
0254_20120920_184958_revelle.all.mb58.gz 4.94MB Kongsberg multibeam vendor format
0255_20120920_192004_revelle.all.mb58.gz 4.95MB Kongsberg multibeam vendor format
0256_20120920_195004_revelle.all.mb58.gz 4.94MB Kongsberg multibeam vendor format
0257_20120920_202004_revelle.all.mb58.gz 4.96MB Kongsberg multibeam vendor format
0258_20120920_205001_revelle.all.mb58.gz 4.99MB Kongsberg multibeam vendor format
0259_20120920_211956_revelle.all.mb58.gz 4.93MB Kongsberg multibeam vendor format
0260_20120920_215004_revelle.all.mb58.gz 4.87MB Kongsberg multibeam vendor format
0261_20120920_221959_revelle.all.mb58.gz 4.91MB Kongsberg multibeam vendor format
0262_20120920_224958_revelle.all.mb58.gz 4.89MB Kongsberg multibeam vendor format
0263_20120920_232004_revelle.all.mb58.gz 1.12MB Kongsberg multibeam vendor format
0264_20120921_102029_revelle.all.mb58.gz 40.8KB Kongsberg multibeam vendor format
0265_20120921_102041_revelle.all.mb58.gz 39.8KB Kongsberg multibeam vendor format
0266_20120921_134744_revelle.all.mb58.gz 3.35MB Kongsberg multibeam vendor format
0267_20120921_140227_revelle.all.mb58.gz 7.26MB Kongsberg multibeam vendor format
0268_20120921_143225_revelle.all.mb58.gz 5.51MB Kongsberg multibeam vendor format
0269_20120921_145321_revelle.all.mb58.gz 0.70MB Kongsberg multibeam vendor format
0270_20120922_072348_revelle.all.mb58.gz 8.77MB Kongsberg multibeam vendor format
0271_20120922_075347_revelle.all.mb58.gz 4.67MB Kongsberg multibeam vendor format
0272_20120922_134733_revelle.all.mb58.gz 4.11MB Kongsberg multibeam vendor format
0273_20120922_141741_revelle.all.mb58.gz 4.20MB Kongsberg multibeam vendor format
0274_20120922_144732_revelle.all.mb58.gz 4.26MB Kongsberg multibeam vendor format
0275_20120922_151727_revelle.all.mb58.gz 4.26MB Kongsberg multibeam vendor format
0276_20120922_154740_revelle.all.mb58.gz 4.84MB Kongsberg multibeam vendor format
0277_20120922_161729_revelle.all.mb58.gz 4.41MB Kongsberg multibeam vendor format
0278_20120922_164732_revelle.all.mb58.gz 4.78MB Kongsberg multibeam vendor format
0279_20120922_171728_revelle.all.mb58.gz 4.94MB Kongsberg multibeam vendor format
0280_20120922_174734_revelle.all.mb58.gz 5.18MB Kongsberg multibeam vendor format
0281_20120922_181733_revelle.all.mb58.gz 7.07MB Kongsberg multibeam vendor format
0282_20120922_184738_revelle.all.mb58.gz 7.16MB Kongsberg multibeam vendor format
0283_20120922_191735_revelle.all.mb58.gz 7.60MB Kongsberg multibeam vendor format
0284_20120922_194737_revelle.all.mb58.gz 2.21MB Kongsberg multibeam vendor format
0285_20120923_080641_revelle.all.mb58.gz 3.23MB Kongsberg multibeam vendor format
0288_20120924_070724_revelle.all.mb58.gz 5.59MB Kongsberg multibeam vendor format
0289_20120924_073729_revelle.all.mb58.gz 8.11MB Kongsberg multibeam vendor format
0290_20120924_080726_revelle.all.mb58.gz 8.91MB Kongsberg multibeam vendor format
0291_20120924_083724_revelle.all.mb58.gz 8.40MB Kongsberg multibeam vendor format
0292_20120924_090723_revelle.all.mb58.gz 8.86MB Kongsberg multibeam vendor format
0293_20120924_093726_revelle.all.mb58.gz 8.43MB Kongsberg multibeam vendor format
0294_20120924_100730_revelle.all.mb58.gz 8.13MB Kongsberg multibeam vendor format
0295_20120924_103722_revelle.all.mb58.gz 7.84MB Kongsberg multibeam vendor format
0296_20120924_110729_revelle.all.mb58.gz 6.68MB Kongsberg multibeam vendor format
0297_20120924_113724_revelle.all.mb58.gz 6.98MB Kongsberg multibeam vendor format
0298_20120924_120725_revelle.all.mb58.gz 8.26MB Kongsberg multibeam vendor format
0299_20120924_123729_revelle.all.mb58.gz 9.30MB Kongsberg multibeam vendor format
0300_20120924_130727_revelle.all.mb58.gz 10.62MB Kongsberg multibeam vendor format
0301_20120924_133723_revelle.all.mb58.gz 7.98MB Kongsberg multibeam vendor format
0302_20120924_140725_revelle.all.mb58.gz 8.52MB Kongsberg multibeam vendor format
0303_20120924_143723_revelle.all.mb58.gz 9.17MB Kongsberg multibeam vendor format
0304_20120924_150725_revelle.all.mb58.gz 9.99MB Kongsberg multibeam vendor format
0305_20120924_153723_revelle.all.mb58.gz 3.42MB Kongsberg multibeam vendor format
0306_20120925_031441_revelle.all.mb58.gz 9.53MB Kongsberg multibeam vendor format
0307_20120925_034441_revelle.all.mb58.gz 8.66MB Kongsberg multibeam vendor format
0308_20120925_041441_revelle.all.mb58.gz 9.36MB Kongsberg multibeam vendor format
0309_20120925_044447_revelle.all.mb58.gz 4.61MB Kongsberg multibeam vendor format
0310_20120925_051449_revelle.all.mb58.gz 4.29MB Kongsberg multibeam vendor format
0311_20120925_054437_revelle.all.mb58.gz 2.62MB Kongsberg multibeam vendor format
0312_20120925_061437_revelle.all.mb58.gz 0.54MB Kongsberg multibeam vendor format
0313_20120925_064412_revelle.all.mb58.gz 5.33MB Kongsberg multibeam vendor format
0314_20120925_071402_revelle.all.mb58.gz 5.68MB Kongsberg multibeam vendor format
0315_20120925_074405_revelle.all.mb58.gz 6.30MB Kongsberg multibeam vendor format
0316_20120925_081408_revelle.all.mb58.gz 6.56MB Kongsberg multibeam vendor format
0317_20120925_084405_revelle.all.mb58.gz 6.44MB Kongsberg multibeam vendor format
0318_20120925_091407_revelle.all.mb58.gz 6.35MB Kongsberg multibeam vendor format
0319_20120925_094410_revelle.all.mb58.gz 6.05MB Kongsberg multibeam vendor format
0320_20120925_101411_revelle.all.mb58.gz 6.87MB Kongsberg multibeam vendor format
0321_20120925_104407_revelle.all.mb58.gz 6.63MB Kongsberg multibeam vendor format
0322_20120925_111412_revelle.all.mb58.gz 6.83MB Kongsberg multibeam vendor format
0323_20120925_114408_revelle.all.mb58.gz 7.20MB Kongsberg multibeam vendor format
0324_20120925_121408_revelle.all.mb58.gz 8.41MB Kongsberg multibeam vendor format
0325_20120925_124403_revelle.all.mb58.gz 10.17MB Kongsberg multibeam vendor format
0326_20120925_131403_revelle.all.mb58.gz 11.03MB Kongsberg multibeam vendor format
0327_20120925_134406_revelle.all.mb58.gz 8.97MB Kongsberg multibeam vendor format
0328_20120925_141403_revelle.all.mb58.gz 2.06MB Kongsberg multibeam vendor format

Full Resolution Bathymetry (processed): 165

Files File Size Description
0062_20120910_124034_revellep.mb59.gz 9.35MB Kongsberg multibeam vendor format
0063_20120910_131029_revellep.mb59.gz 8.83MB Kongsberg multibeam vendor format
0064_20120910_134033_revellep.mb59.gz 8.34MB Kongsberg multibeam vendor format
0065_20120910_141034_revellep.mb59.gz 9.86MB Kongsberg multibeam vendor format
0066_20120910_144031_revellep.mb59.gz 10.11MB Kongsberg multibeam vendor format
0067_20120910_151029_revellep.mb59.gz 10.32MB Kongsberg multibeam vendor format
0068_20120910_154033_revellep.mb59.gz 11.31MB Kongsberg multibeam vendor format
0069_20120910_161030_revellep.mb59.gz 9.92MB Kongsberg multibeam vendor format
0070_20120910_164029_revellep.mb59.gz 9.94MB Kongsberg multibeam vendor format
0071_20120910_171037_revellep.mb59.gz 8.55MB Kongsberg multibeam vendor format
0072_20120910_174035_revellep.mb59.gz 10.55MB Kongsberg multibeam vendor format
0073_20120910_181031_revellep.mb59.gz 5.57MB Kongsberg multibeam vendor format
0074_20120911_074138_revellep.mb59.gz 10.32MB Kongsberg multibeam vendor format
0075_20120911_081120_revellep.mb59.gz 9.70MB Kongsberg multibeam vendor format
0076_20120911_084119_revellep.mb59.gz 9.59MB Kongsberg multibeam vendor format
0077_20120911_091123_revellep.mb59.gz 9.82MB Kongsberg multibeam vendor format
0078_20120911_094123_revellep.mb59.gz 9.88MB Kongsberg multibeam vendor format
0079_20120911_101128_revellep.mb59.gz 9.51MB Kongsberg multibeam vendor format
0080_20120911_104122_revellep.mb59.gz 9.80MB Kongsberg multibeam vendor format
0081_20120911_111122_revellep.mb59.gz 9.68MB Kongsberg multibeam vendor format
0082_20120911_114123_revellep.mb59.gz 9.63MB Kongsberg multibeam vendor format
0083_20120911_121124_revellep.mb59.gz 9.65MB Kongsberg multibeam vendor format
0084_20120911_124126_revellep.mb59.gz 9.59MB Kongsberg multibeam vendor format
0085_20120911_131121_revellep.mb59.gz 9.57MB Kongsberg multibeam vendor format
0086_20120911_134120_revellep.mb59.gz 9.99MB Kongsberg multibeam vendor format
0087_20120911_141126_revellep.mb59.gz 9.67MB Kongsberg multibeam vendor format
0088_20120911_144119_revellep.mb59.gz 9.69MB Kongsberg multibeam vendor format
0089_20120911_151124_revellep.mb59.gz 9.74MB Kongsberg multibeam vendor format
0090_20120911_154128_revellep.mb59.gz 9.87MB Kongsberg multibeam vendor format
0091_20120911_161125_revellep.mb59.gz 9.71MB Kongsberg multibeam vendor format
0092_20120911_164125_revellep.mb59.gz 9.67MB Kongsberg multibeam vendor format
0093_20120911_171121_revellep.mb59.gz 9.95MB Kongsberg multibeam vendor format
0094_20120911_174121_revellep.mb59.gz 9.97MB Kongsberg multibeam vendor format
0095_20120911_181120_revellep.mb59.gz 9.97MB Kongsberg multibeam vendor format
0096_20120911_184125_revellep.mb59.gz 9.97MB Kongsberg multibeam vendor format
0097_20120911_191122_revellep.mb59.gz 10.02MB Kongsberg multibeam vendor format
0098_20120911_194127_revellep.mb59.gz 9.95MB Kongsberg multibeam vendor format
0099_20120911_201125_revellep.mb59.gz 10.06MB Kongsberg multibeam vendor format
0100_20120911_204120_revellep.mb59.gz 10.16MB Kongsberg multibeam vendor format
0101_20120911_211125_revellep.mb59.gz 10.25MB Kongsberg multibeam vendor format
0102_20120911_214120_revellep.mb59.gz 10.38MB Kongsberg multibeam vendor format
0103_20120911_221125_revellep.mb59.gz 10.26MB Kongsberg multibeam vendor format
0104_20120911_224122_revellep.mb59.gz 10.36MB Kongsberg multibeam vendor format
0105_20120911_231126_revellep.mb59.gz 10.29MB Kongsberg multibeam vendor format
0106_20120911_234121_revellep.mb59.gz 10.44MB Kongsberg multibeam vendor format
0107_20120912_001125_revellep.mb59.gz 11.61MB Kongsberg multibeam vendor format
0108_20120912_004119_revellep.mb59.gz 12.82MB Kongsberg multibeam vendor format
0109_20120912_011122_revellep.mb59.gz 12.25MB Kongsberg multibeam vendor format
0110_20120912_014123_revellep.mb59.gz 7.58MB Kongsberg multibeam vendor format
0111_20120912_034933_revellep.mb59.gz 13.36MB Kongsberg multibeam vendor format
0112_20120912_041938_revellep.mb59.gz 11.69MB Kongsberg multibeam vendor format
0113_20120912_044934_revellep.mb59.gz 12.04MB Kongsberg multibeam vendor format
0114_20120912_051933_revellep.mb59.gz 11.70MB Kongsberg multibeam vendor format
0115_20120912_054935_revellep.mb59.gz 11.91MB Kongsberg multibeam vendor format
0116_20120912_061938_revellep.mb59.gz 11.43MB Kongsberg multibeam vendor format
0117_20120912_064932_revellep.mb59.gz 10.92MB Kongsberg multibeam vendor format
0118_20120912_071934_revellep.mb59.gz 10.94MB Kongsberg multibeam vendor format
0119_20120912_074938_revellep.mb59.gz 11.42MB Kongsberg multibeam vendor format
0120_20120912_081934_revellep.mb59.gz 13.07MB Kongsberg multibeam vendor format
0121_20120912_084932_revellep.mb59.gz 12.81MB Kongsberg multibeam vendor format
0122_20120912_091935_revellep.mb59.gz 12.78MB Kongsberg multibeam vendor format
0123_20120912_094934_revellep.mb59.gz 12.21MB Kongsberg multibeam vendor format
0124_20120912_101932_revellep.mb59.gz 13.73MB Kongsberg multibeam vendor format
0125_20120912_104934_revellep.mb59.gz 11.02MB Kongsberg multibeam vendor format
0126_20120912_111939_revellep.mb59.gz 11.06MB Kongsberg multibeam vendor format
0131_20120912_134935_revellep.mb59.gz 13.68MB Kongsberg multibeam vendor format
0133_20120912_144937_revellep.mb59.gz 11.94MB Kongsberg multibeam vendor format
0134_20120912_151936_revellep.mb59.gz 7.71MB Kongsberg multibeam vendor format
0135_20120912_154943_revellep.mb59.gz 6.89MB Kongsberg multibeam vendor format
0136_20120912_161934_revellep.mb59.gz 6.74MB Kongsberg multibeam vendor format
0137_20120912_164935_revellep.mb59.gz 10.78MB Kongsberg multibeam vendor format
0138_20120912_171933_revellep.mb59.gz 9.69MB Kongsberg multibeam vendor format
0139_20120912_174936_revellep.mb59.gz 4.49MB Kongsberg multibeam vendor format
0141_20120913_083944_revellep.mb59.gz 9.40MB Kongsberg multibeam vendor format
0142_20120913_090942_revellep.mb59.gz 6.52MB Kongsberg multibeam vendor format
0143_20120913_093945_revellep.mb59.gz 7.34MB Kongsberg multibeam vendor format
0144_20120913_100942_revellep.mb59.gz 10.77MB Kongsberg multibeam vendor format
0145_20120913_103941_revellep.mb59.gz 10.57MB Kongsberg multibeam vendor format
0146_20120913_110944_revellep.mb59.gz 10.40MB Kongsberg multibeam vendor format
0147_20120913_113946_revellep.mb59.gz 10.17MB Kongsberg multibeam vendor format
0148_20120913_120941_revellep.mb59.gz 10.15MB Kongsberg multibeam vendor format
0149_20120913_123944_revellep.mb59.gz 10.05MB Kongsberg multibeam vendor format
0150_20120913_130939_revellep.mb59.gz 10.34MB Kongsberg multibeam vendor format
0151_20120913_133939_revellep.mb59.gz 10.41MB Kongsberg multibeam vendor format
0152_20120913_140946_revellep.mb59.gz 10.54MB Kongsberg multibeam vendor format
0153_20120913_143943_revellep.mb59.gz 10.60MB Kongsberg multibeam vendor format
0154_20120913_150944_revellep.mb59.gz 10.89MB Kongsberg multibeam vendor format
0155_20120913_153939_revellep.mb59.gz 11.08MB Kongsberg multibeam vendor format
0156_20120913_160938_revellep.mb59.gz 11.10MB Kongsberg multibeam vendor format
0157_20120913_163940_revellep.mb59.gz 11.17MB Kongsberg multibeam vendor format
0158_20120913_170945_revellep.mb59.gz 11.36MB Kongsberg multibeam vendor format
0159_20120913_173944_revellep.mb59.gz 10.99MB Kongsberg multibeam vendor format
0160_20120913_180948_revellep.mb59.gz 9.52MB Kongsberg multibeam vendor format
0161_20120913_183946_revellep.mb59.gz 9.66MB Kongsberg multibeam vendor format
0162_20120913_190939_revellep.mb59.gz 6.65MB Kongsberg multibeam vendor format
0175_20120914_152325_revellep.mb59.gz 10.00MB Kongsberg multibeam vendor format
0176_20120914_155321_revellep.mb59.gz 9.70MB Kongsberg multibeam vendor format
0177_20120914_162318_revellep.mb59.gz 7.22MB Kongsberg multibeam vendor format
0178_20120914_165316_revellep.mb59.gz 6.63MB Kongsberg multibeam vendor format
0179_20120914_172326_revellep.mb59.gz 8.21MB Kongsberg multibeam vendor format
0194_20120915_231418_revellep.mb59.gz 7.44MB Kongsberg multibeam vendor format
0195_20120915_234412_revellep.mb59.gz 7.51MB Kongsberg multibeam vendor format
0196_20120916_001415_revellep.mb59.gz 9.19MB Kongsberg multibeam vendor format
0197_20120916_004420_revellep.mb59.gz 7.76MB Kongsberg multibeam vendor format
0198_20120916_011415_revellep.mb59.gz 8.89MB Kongsberg multibeam vendor format
0199_20120916_014412_revellep.mb59.gz 12.18MB Kongsberg multibeam vendor format
0200_20120916_021412_revellep.mb59.gz 11.40MB Kongsberg multibeam vendor format
0201_20120916_024414_revellep.mb59.gz 10.78MB Kongsberg multibeam vendor format
0202_20120916_031412_revellep.mb59.gz 10.97MB Kongsberg multibeam vendor format
0203_20120916_034411_revellep.mb59.gz 11.17MB Kongsberg multibeam vendor format
0208_20120916_050357_revellep.mb59.gz 10.80MB Kongsberg multibeam vendor format
0209_20120916_053357_revellep.mb59.gz 10.58MB Kongsberg multibeam vendor format
0210_20120916_072601_revellep.mb59.gz 12.13MB Kongsberg multibeam vendor format
0211_20120916_075602_revellep.mb59.gz 11.34MB Kongsberg multibeam vendor format
0212_20120916_082558_revellep.mb59.gz 11.20MB Kongsberg multibeam vendor format
0213_20120916_085558_revellep.mb59.gz 3.05MB Kongsberg multibeam vendor format
0214_20120916_114156_revellep.mb59.gz 11.14MB Kongsberg multibeam vendor format
0215_20120916_121156_revellep.mb59.gz 10.92MB Kongsberg multibeam vendor format
0216_20120916_124200_revellep.mb59.gz 11.00MB Kongsberg multibeam vendor format
0217_20120916_131200_revellep.mb59.gz 11.44MB Kongsberg multibeam vendor format
0218_20120916_134156_revellep.mb59.gz 10.44MB Kongsberg multibeam vendor format
0219_20120916_141159_revellep.mb59.gz 7.63MB Kongsberg multibeam vendor format
0220_20120916_144205_revellep.mb59.gz 7.76MB Kongsberg multibeam vendor format
0221_20120916_151205_revellep.mb59.gz 7.62MB Kongsberg multibeam vendor format
0222_20120916_154202_revellep.mb59.gz 9.67MB Kongsberg multibeam vendor format
0223_20120916_161202_revellep.mb59.gz 12.05MB Kongsberg multibeam vendor format
0224_20120916_164202_revellep.mb59.gz 10.36MB Kongsberg multibeam vendor format
0225_20120916_171156_revellep.mb59.gz 10.45MB Kongsberg multibeam vendor format
0226_20120916_174157_revellep.mb59.gz 7.93MB Kongsberg multibeam vendor format
0238_20120917_172647_revellep.mb59.gz 8.90MB Kongsberg multibeam vendor format
0239_20120917_175646_revellep.mb59.gz 12.13MB Kongsberg multibeam vendor format
0240_20120917_182649_revellep.mb59.gz 6.01MB Kongsberg multibeam vendor format
0241_20120917_185646_revellep.mb59.gz 9.64MB Kongsberg multibeam vendor format
0242_20120917_192643_revellep.mb59.gz 9.22MB Kongsberg multibeam vendor format
0243_20120917_195652_revellep.mb59.gz 7.13MB Kongsberg multibeam vendor format
0248_20120920_154956_revellep.mb59.gz 9.83MB Kongsberg multibeam vendor format
0249_20120920_161958_revellep.mb59.gz 10.55MB Kongsberg multibeam vendor format
0250_20120920_164953_revellep.mb59.gz 8.45MB Kongsberg multibeam vendor format
0251_20120920_172000_revellep.mb59.gz 5.59MB Kongsberg multibeam vendor format
0267_20120921_140227_revellep.mb59.gz 8.79MB Kongsberg multibeam vendor format
0269_20120921_145321_revellep.mb59.gz 0.89MB Kongsberg multibeam vendor format
0275_20120922_151727_revellep.mb59.gz 5.03MB Kongsberg multibeam vendor format
0276_20120922_154740_revellep.mb59.gz 5.71MB Kongsberg multibeam vendor format
0277_20120922_161729_revellep.mb59.gz 5.24MB Kongsberg multibeam vendor format
0278_20120922_164732_revellep.mb59.gz 5.83MB Kongsberg multibeam vendor format
0279_20120922_171728_revellep.mb59.gz 6.04MB Kongsberg multibeam vendor format
0297_20120924_113724_revellep.mb59.gz 8.40MB Kongsberg multibeam vendor format
0307_20120925_034441_revellep.mb59.gz 10.69MB Kongsberg multibeam vendor format
0309_20120925_044447_revellep.mb59.gz 5.40MB Kongsberg multibeam vendor format
0313_20120925_064412_revellep.mb59.gz 6.10MB Kongsberg multibeam vendor format
0314_20120925_071402_revellep.mb59.gz 6.54MB Kongsberg multibeam vendor format
0315_20120925_074405_revellep.mb59.gz 7.27MB Kongsberg multibeam vendor format
0316_20120925_081408_revellep.mb59.gz 7.61MB Kongsberg multibeam vendor format
0317_20120925_084405_revellep.mb59.gz 7.56MB Kongsberg multibeam vendor format
0318_20120925_091407_revellep.mb59.gz 7.48MB Kongsberg multibeam vendor format
0319_20120925_094410_revellep.mb59.gz 6.98MB Kongsberg multibeam vendor format
0320_20120925_101411_revellep.mb59.gz 7.96MB Kongsberg multibeam vendor format
0321_20120925_104407_revellep.mb59.gz 7.80MB Kongsberg multibeam vendor format
0322_20120925_111412_revellep.mb59.gz 7.93MB Kongsberg multibeam vendor format
0323_20120925_114408_revellep.mb59.gz 8.29MB Kongsberg multibeam vendor format
0324_20120925_121408_revellep.mb59.gz 9.62MB Kongsberg multibeam vendor format
0325_20120925_124403_revellep.mb59.gz 12.27MB Kongsberg multibeam vendor format
0326_20120925_131403_revellep.mb59.gz 0.71MB Kongsberg multibeam vendor format
0327_20120925_134406_revellep.mb59.gz 10.88MB Kongsberg multibeam vendor format
0328_20120925_141403_revellep.mb59.gz 2.59MB Kongsberg multibeam vendor format

Metadata Files: 4

Files File Size Description
RR1211_Multibeam.xml NGDC created ISO metadata
em122_bag_info.tar.gz 15.0KB Additional cruise information
xbt_bag_info.tar.gz 3.4KB Additional cruise information
metadata-RR1211-4ngdc-README.pdf 68.6KB PDF metadata file

Ancillary Files: 1

Files File Size Description
xbt.tar.gz 0.70MB Expendable Bathythermograph (XBT) data